When you browse on this site, cookies collect data to enhance your experience and personalize the content and advertising you see.
Visit our Privacy Policy to learn more. By continuing to use the site, you agree to this use of cookies and data.
  • In Latvia
  • List of Countries
  • For 7 days
  • Water Temperature
  • Satellite Maps
  • Weather Map
  • Weather Widgets
  • user-avatar
    Login

    Hourly Weather Burdin

    Today, 17 June, Monday

    Time Temperature Precipitation Wind Pressure Humidity
    00:00 +14°C° 0 mm 2 mps 748 mmHg 84%
    01:00 +14°C° 0 mm 2 mps 749 mmHg 84%
    02:00 +13°C° 0 mm 2 mps 749 mmHg 85%
    03:00 +13°C° 0 mm 2 mps 749 mmHg 85%
    04:00 +14°C° 0 mm 2 mps 749 mmHg 82%
    05:00 +15°C° 0 mm 2 mps 750 mmHg 79%
    06:00 +16°C° 0 mm 2 mps 750 mmHg 76%
    07:00 +17°C° 0 mm 2 mps 750 mmHg 70%
    08:00 +19°C° 0 mm 2 mps 750 mmHg 64%
    09:00 +21°C° 0 mm 2 mps 750 mmHg 57%
    10:00 +23°C° 0 mm 2 mps 750 mmHg 54%
    11:00 +24°C° 0 mm 2 mps 750 mmHg 50%
    12:00 +25°C° 0 mm 1 mps 750 mmHg 46%
    13:00 +25°C° 0 mm 2 mps 750 mmHg 45%
    14:00 +25°C° 0 mm 2 mps 750 mmHg 44%
    15:00 +26°C° 0 mm 2 mps 750 mmHg 43%
    16:00 +25°C° 0 mm 2 mps 750 mmHg 46%
    17:00 +25°C° 0 mm 2 mps 750 mmHg 50%
    18:00 +25°C° 0 mm 2 mps 750 mmHg 54%
    19:00 +23°C° 0 mm 2 mps 750 mmHg 58%
    20:00 +21°C° 0 mm 1 mps 750 mmHg 62%
    21:00 +19°C° 0 mm 1 mps 750 mmHg 66%
    22:00 +18°C° 0 mm 1 mps 750 mmHg 68%
    23:00 +18°C° 0 mm 1 mps 750 mmHg 70%

    Tomorrow, 18 June, Tuesday

    Time Temperature Precipitation Wind Pressure Humidity
    00:00 +16°C° 0 mm 1 mps 750 mmHg 72%
    01:00 +16°C° 0 mm 1 mps 750 mmHg 73%
    02:00 +16°C° 0 mm 1 mps 750 mmHg 75%
    03:00 +15°C° 0 mm 1 mps 750 mmHg 77%
    04:00 +16°C° 0 mm 1 mps 750 mmHg 75%
    05:00 +18°C° 0 mm 1 mps 750 mmHg 74%
    06:00 +19°C° 0 mm 1 mps 750 mmHg 72%
    07:00 +21°C° 0 mm 1 mps 750 mmHg 67%
    08:00 +21°C° 0 mm 2 mps 750 mmHg 63%
    09:00 +24°C° 0 mm 2 mps 750 mmHg 58%
    10:00 +25°C° 0 mm 2 mps 750 mmHg 54%
    11:00 +26°C° 0 mm 2 mps 750 mmHg 51%
    12:00 +27°C° 0 mm 3 mps 750 mmHg 47%
    13:00 +27°C° 0 mm 2 mps 750 mmHg 48%
    14:00 +27°C° 0 mm 2 mps 749 mmHg 48%
    15:00 +27°C° 0 mm 2 mps 749 mmHg 48%
    16:00 +27°C° 0.1 mm 2 mps 749 mmHg 52%
    17:00 +26°C° 0.1 mm 2 mps 749 mmHg 56%
    18:00 +26°C° 0.1 mm 2 mps 749 mmHg 61%
    19:00 +24°C° 0.2 mm 2 mps 749 mmHg 67%
    20:00 +22°C° 0.2 mm 1 mps 748 mmHg 73%
    21:00 +20°C° 0.2 mm 1 mps 748 mmHg 79%
    22:00 +20°C° 0 mm 1 mps 748 mmHg 80%
    23:00 +20°C° 0 mm 1 mps 748 mmHg 81%

    Day after tomorrow, 19 June, Wednesday

    Time Temperature Precipitation Wind Pressure Humidity
    00:00 +17°C° 0 mm 0 mps 748 mmHg 82%
    01:00 +19°C° 0 mm 1 mps 748 mmHg 83%
    02:00 +19°C° 0 mm 1 mps 748 mmHg 84%
    03:00 +18°C° 0 mm 1 mps 747 mmHg 85%
    04:00 +19°C° 0.7 mm 1 mps 748 mmHg 85%
    05:00 +18°C° 0.7 mm 2 mps 748 mmHg 85%
    06:00 +19°C° 0.7 mm 2 mps 748 mmHg 85%
    07:00 +20°C° 0.6 mm 2 mps 748 mmHg 81%
    08:00 +21°C° 0.6 mm 2 mps 748 mmHg 76%
    09:00 +23°C° 0.6 mm 1 mps 748 mmHg 72%
    10:00 +24°C° 0.2 mm 2 mps 748 mmHg 67%
    11:00 +25°C° 0.2 mm 2 mps 748 mmHg 61%
    12:00 +26°C° 0.2 mm 2 mps 748 mmHg 56%
    13:00 +27°C° 0 mm 3 mps 748 mmHg 53%
    14:00 +27°C° 0 mm 3 mps 748 mmHg 50%
    15:00 +28°C° 0 mm 4 mps 748 mmHg 47%
    16:00 +27°C° 0 mm 4 mps 748 mmHg 52%
    17:00 +27°C° 0 mm 3 mps 748 mmHg 57%
    18:00 +26°C° 0 mm 3 mps 748 mmHg 62%
    19:00 +24°C° 0 mm 3 mps 748 mmHg 68%
    20:00 +21°C° 0 mm 2 mps 749 mmHg 74%
    21:00 +19°C° 0 mm 2 mps 749 mmHg 80%
    22:00 +19°C° 0 mm 2 mps 749 mmHg 82%
    23:00 +18°C° 0 mm 2 mps 749 mmHg 85%

    20 June, Thursday

    Time Temperature Precipitation Wind Pressure Humidity
    00:00 +17°C° 0 mm 2 mps 749 mmHg 87%
    01:00 +17°C° 0 mm 2 mps 749 mmHg 89%
    02:00 +17°C° 0 mm 3 mps 749 mmHg 90%
    03:00 +16°C° 0 mm 3 mps 749 mmHg 92%
    04:00 +17°C° 0 mm 3 mps 750 mmHg 89%
    05:00 +18°C° 0 mm 4 mps 750 mmHg 87%
    06:00 +18°C° 0 mm 4 mps 750 mmHg 85%
    07:00 +20°C° 0 mm 4 mps 751 mmHg 78%
    08:00 +22°C° 0 mm 5 mps 751 mmHg 71%
    09:00 +23°C° 0 mm 5 mps 751 mmHg 64%
    10:00 +25°C° 0 mm 5 mps 751 mmHg 61%
    11:00 +26°C° 0 mm 5 mps 751 mmHg 57%
    12:00 +27°C° 0 mm 5 mps 751 mmHg 53%
    13:00 +27°C° 0 mm 5 mps 751 mmHg 52%
    14:00 +28°C° 0 mm 5 mps 751 mmHg 51%
    15:00 +28°C° 0 mm 5 mps 751 mmHg 49%
    16:00 +27°C° 0 mm 5 mps 751 mmHg 53%
    17:00 +27°C° 0 mm 4 mps 752 mmHg 56%
    18:00 +26°C° 0 mm 3 mps 752 mmHg 60%
    19:00 +24°C° 0 mm 3 mps 752 mmHg 63%
    20:00 +21°C° 0 mm 3 mps 752 mmHg 66%
    21:00 +20°C° 0 mm 3 mps 752 mmHg 69%
    22:00 +19°C° 0 mm 3 mps 752 mmHg 70%
    23:00 +18°C° 0 mm 3 mps 753 mmHg 71%

    21 June, Friday

    Time Temperature Precipitation Wind Pressure Humidity
    00:00 +18°C° 0 mm 2 mps 753 mmHg 71%
    01:00 +17°C° 0 mm 2 mps 753 mmHg 73%
    02:00 +17°C° 0 mm 2 mps 753 mmHg 75%
    03:00 +16°C° 0 mm 2 mps 753 mmHg 77%
    04:00 +18°C° 0 mm 2 mps 753 mmHg 75%
    05:00 +19°C° 0 mm 2 mps 753 mmHg 74%
    06:00 +20°C° 0 mm 2 mps 754 mmHg 72%
    07:00 +23°C° 0 mm 2 mps 754 mmHg 67%
    08:00 +24°C° 0 mm 2 mps 754 mmHg 62%
    09:00 +26°C° 0 mm 3 mps 754 mmHg 57%
    10:00 +27°C° 0 mm 3 mps 754 mmHg 53%
    11:00 +28°C° 0 mm 3 mps 754 mmHg 49%
    12:00 +29°C° 0 mm 3 mps 754 mmHg 46%
    13:00 +29°C° 0 mm 3 mps 754 mmHg 45%
    14:00 +29°C° 0 mm 3 mps 754 mmHg 44%
    15:00 +30°C° 0 mm 3 mps 753 mmHg 43%
    16:00 +29°C° 0 mm 3 mps 753 mmHg 47%
    17:00 +29°C° 0 mm 2 mps 753 mmHg 52%
    18:00 +28°C° 0 mm 2 mps 753 mmHg 57%
    19:00 +26°C° 0 mm 2 mps 753 mmHg 60%
    20:00 +25°C° 0 mm 1 mps 754 mmHg 63%
    21:00 +23°C° 0 mm 1 mps 754 mmHg 66%
    22:00 +22°C° 0 mm 1 mps 754 mmHg 68%
    23:00 +22°C° 0 mm 1 mps 754 mmHg 70%

    22 June, Saturday

    Time Temperature Precipitation Wind Pressure Humidity
    00:00 +21°C° 0 mm 1 mps 754 mmHg 72%
    01:00 +21°C° 0 mm 1 mps 754 mmHg 73%
    02:00 +20°C° 0 mm 1 mps 754 mmHg 74%
    03:00 +20°C° 0 mm 1 mps 754 mmHg 75%
    04:00 +20°C° 0 mm 2 mps 755 mmHg 73%
    05:00 +21°C° 0 mm 2 mps 755 mmHg 70%
    06:00 +21°C° 0 mm 2 mps 755 mmHg 68%
    07:00 +24°C° 0 mm 2 mps 755 mmHg 62%
    08:00 +25°C° 0 mm 2 mps 755 mmHg 56%
    09:00 +27°C° 0 mm 2 mps 755 mmHg 50%
    10:00 +28°C° 0 mm 2 mps 755 mmHg 48%
    11:00 +29°C° 0 mm 2 mps 755 mmHg 45%
    12:00 +29°C° 0 mm 2 mps 755 mmHg 42%
    13:00 +30°C° 0 mm 2 mps 755 mmHg 41%
    14:00 +30°C° 0 mm 2 mps 755 mmHg 40%
    15:00 +30°C° 0 mm 2 mps 755 mmHg 38%
    16:00 +30°C° 0 mm 2 mps 755 mmHg 42%
    17:00 +29°C° 0 mm 2 mps 755 mmHg 46%
    18:00 +29°C° 0 mm 2 mps 755 mmHg 51%
    19:00 +27°C° 0 mm 1 mps 755 mmHg 53%
    20:00 +25°C° 0 mm 1 mps 755 mmHg 55%
    21:00 +23°C° 0 mm 1 mps 755 mmHg 57%
    22:00 +22°C° 0 mm 1 mps 755 mmHg 58%
    23:00 +22°C° 0 mm 1 mps 755 mmHg 59%
    Show more